Weather History for CWEU - October, 2012

Change the Weather History Date:

Tuesday, October 2, 2012

  Actual Average Record
Temperature  
Mean Temperature 20 °F -  
Max Temperature 23 °F -2 °F 24 °F (2001)
Min Temperature 17 °F -16 °F -16 °F (2004)
Degree Days  
Heating Degree Days 45    
Moisture  
Dew Point 19 °F    
Average Humidity 89    
Maximum Humidity 100    
Minimum Humidity 80    
Precipitation  
Precipitation 0.00 in 0.01 in - ()
Sea Level Pressure  
Sea Level Pressure 30.03 in    
Wind  
Wind Speed 10 mph ()    
Max Wind Speed 17 mph    
Max Gust Speed -    
Visibility 10.6 miles    
Events Snow    
Averages and records for this station are not official NWS values.
T = Trace of Precipitation, MM = Missing Value Source: Averaged Metar Reports

Daily Weather History Graph

Daily Weather History Graph

Search for Another Location

Airport or City:

Trip Planner

Search our weather history database for the weather conditions in past years. The results will help you decide how hot, cold, wet, or windy it might be!

Date:

Astronomy

Oct. 02, 2012 Rise Set
Actual Time 7:42 AM CDT 5:19 PM CDT
Civil Twilight 5:41 AM CDT 7:19 PM CDT
Nautical Twilight 2:50 AM CDT 10:03 PM CDT
Astronomical Twilight Sun does not rise Sun does not rise
Moon No Moon Rise No Moon Set
Length of Visible Light 13h 38m
Length of Day
9h 37m
Waning Gibbous, 94% of the Moon is Illuminated
Oct 2
Waning Gibbous
Oct 8
Last Quarter
Oct 15
New
Oct 21
First Quarter
Oct 29
Full

Hourly Weather History & Observations

Time (CDT) Temp. Windchill Dew Point Humidity Pressure Visibility Wind Dir Wind Speed Gust Speed Precip Events Conditions
1:00 AM 22 °F - 20 °F 90% 29.94 in 10 mi North 11.5 mph - - Snow Light Snow
1:00 AM 21.2 °F 9.5 °F 21.2 °F 100% 29.94 in 10.0 mi North 11.5 mph - N/A Snow Light Snow
2:00 AM 24.8 °F 16.1 °F 21.2 °F 86% 29.94 in 10.0 mi North 8.1 mph - N/A Snow Light Snow
2:31 AM - - - N/A% - 10.0 mi North 9.2 mph - N/A   Unknown
3:00 AM 24.8 °F 15.3 °F 21.2 °F 86% 29.96 in 10.0 mi North 9.2 mph - N/A Snow Light Snow
4:00 AM 23.0 °F 13.9 °F 21.2 °F 93% 29.97 in 10.0 mi North 8.1 mph - N/A Snow Light Snow
6:00 AM 21.2 °F 12.6 °F 21.2 °F 100% 30.01 in 10.0 mi North 6.9 mph - N/A Snow Light Snow
7:00 AM 23 °F - 20 °F 85% 30.02 in 10 mi North 10.4 mph - - Snow Light Snow
7:00 AM 23.0 °F 13.1 °F 21.2 °F 93% 30.02 in 10.0 mi North 9.2 mph - N/A Snow Light Snow
8:00 AM 21.2 °F 9.5 °F 19.4 °F 93% 30.03 in 10.0 mi North 11.5 mph - N/A Snow Light Snow
9:00 AM 21.2 °F 10.1 °F 19.4 °F 93% 30.04 in 10.0 mi North 10.4 mph - N/A Snow Light Snow
10:00 AM 23.0 °F 12.4 °F 19.4 °F 86% 30.06 in 10.0 mi North 10.4 mph - N/A Snow Light Snow
11:00 AM 21.2 °F 8.9 °F 17.6 °F 86% 30.05 in 12.0 mi North 12.7 mph - N/A Snow Light Snow
11:33 AM - - - N/A% - 12.0 mi NNW 12.7 mph - N/A   Mostly Cloudy
12:00 PM 19.4 °F 7.9 °F 15.8 °F 86% 30.06 in 12.0 mi North 10.4 mph - N/A   Mostly Cloudy
1:00 PM 23.0 °F 11.7 °F 19.4 °F 86% 30.06 in 12.0 mi NNW 11.5 mph - N/A   Mostly Cloudy
1:29 PM - - - N/A% - 12.0 mi NNW 9.2 mph - N/A Snow Light Snow Grains
2:00 PM 23.0 °F 11.7 °F 19.4 °F 86% 30.06 in 12.0 mi NNW 11.5 mph - N/A Snow Light Snow Grains
3:00 PM 23.0 °F 12.4 °F 19.4 °F 86% 30.07 in 10.0 mi NNW 10.4 mph - N/A Snow Light Snow
3:46 PM - - - N/A% - 15.0 mi NNW 12.7 mph - N/A   Overcast
4:00 PM 23.0 °F 11.7 °F 19.4 °F 86% 30.06 in 15.0 mi NNW 11.5 mph - N/A   Overcast
5:00 PM 21.2 °F 7.8 °F 19.4 °F 93% 30.07 in 7.0 mi NNW 15.0 mph - N/A Snow Light Snow
6:00 PM 21.2 °F 7.8 °F 15.8 °F 80% 30.06 in 7.0 mi North 15.0 mph - N/A Snow Light Snow
7:00 PM 19 °F - 17 °F 85% 30.06 in 10 mi North 16.1 mph - - Snow Light Snow
7:00 PM 19.4 °F 4.5 °F 15.8 °F 86% 30.06 in 10.0 mi North 17.3 mph - N/A Snow Low Drifting Snow
8:00 PM 19.4 °F 4.5 °F 15.8 °F 86% 30.05 in 10.0 mi North 17.3 mph - N/A Snow Low Drifting Snow
9:00 PM 17.6 °F 2.2 °F 15.8 °F 93% 30.04 in 10.0 mi NNW 17.3 mph - N/A Snow Low Drifting Snow
10:00 PM 17.6 °F 2.7 °F 15.8 °F 93% 30.04 in 10.0 mi North 16.1 mph - N/A   Mostly Cloudy